Antalya, Turkey

4:47 AM +03 on June 24, 2017 (GMT +0300)
Antalya

Weather History for LTAI - February, 2013

Change the Weather History Date:

Sunday, February 24, 2013

  Actual Average Record
Temperature  
Mean Temperature 56 °F -  
Max Temperature 66 °F 63 °F 71 °F (2008)
Min Temperature 46 °F 45 °F 32 °F (1997)
Degree Days  
Heating Degree Days 9    
Growing Degree Days 6 (Base 50)    
Moisture  
Dew Point 50 °F    
Average Humidity 83    
Maximum Humidity 100    
Minimum Humidity 53    
Precipitation  
Precipitation 0.00 in 0.16 in - ()
Sea Level Pressure  
Sea Level Pressure 30.18 in    
Wind  
Wind Speed 5 mph ()    
Max Wind Speed 9 mph    
Max Gust Speed -    
Visibility 5.0 miles    
Events      
Averages and records for this station are not official NWS values.
T = Trace of Precipitation, MM = Missing Value Source: Averaged Metar Reports

Daily Weather History Graph

Daily Weather History Graph

Search for Another Location

Airport or City:

Trip Planner

Search our weather history database for the weather conditions in past years. The results will help you decide how hot, cold, wet, or windy it might be!

Date:

Astronomy

Feb. 24, 2013 Rise Set
Actual Time 6:34 AM EET 5:46 PM EET
Civil Twilight 6:08 AM EET 6:12 PM EET
Nautical Twilight 5:38 AM EET 6:42 PM EET
Astronomical Twilight 5:08 AM EET 7:12 PM EET
Moon 4:37 PM EET 5:19 AM EET
Length of Visible Light 12h 04m
Length of Day
11h 11m
Waxing Gibbous, 98% of the Moon is Illuminated
Feb 24
Waxing Gibbous
Feb 25
Full
Mar 4
Last Quarter
Mar 11
New
Mar 19
First Quarter

Hourly Weather History & Observations

Time (EET) Temp. Windchill Dew Point Humidity Pressure Visibility Wind Dir Wind Speed Gust Speed Precip Events Conditions
12:20 AM 50.0 °F - 48.2 °F 94% 30.09 in 6.2 mi NNW 4.6 mph - N/A   Partly Cloudy
12:50 AM 50.0 °F - 48.2 °F 94% 30.09 in 6.2 mi NNW 5.8 mph - N/A   Partly Cloudy
1:20 AM 50.0 °F - 48.2 °F 94% 30.09 in 6.2 mi NNW 5.8 mph - N/A   Partly Cloudy
1:50 AM 50.0 °F - 48.2 °F 94% 30.12 in 6.2 mi NW 4.6 mph - N/A   Partly Cloudy
2:00 AM 50 °F - 49 °F 95% 30.11 in 6 mi NW 4.6 mph - -   Scattered Clouds
2:20 AM 50.0 °F - 48.2 °F 94% 30.12 in - NW 3.5 mph - N/A   Clear
2:50 AM 50.0 °F - 48.2 °F 94% 30.12 in - NW 4.6 mph - N/A   Clear
3:20 AM 48.2 °F - 46.4 °F 93% 30.12 in - North 2.3 mph - N/A   Clear
3:50 AM 48.2 °F - 46.4 °F 93% 30.12 in - North 6.9 mph - N/A   Clear
4:20 AM 48.2 °F - 46.4 °F 93% 30.12 in - North 4.6 mph - N/A   Clear
4:50 AM 48.2 °F - 46.4 °F 93% 30.12 in - NNW 6.9 mph - N/A   Clear
5:20 AM 46.4 °F 44.3 °F 44.6 °F 93% 30.12 in - NW 4.6 mph - N/A   Clear
5:50 AM 46.4 °F 44.3 °F 46.4 °F 100% 30.12 in - NW 4.6 mph - N/A   Clear
6:20 AM 48.2 °F - 46.4 °F 93% 30.15 in - NNW 5.8 mph - N/A   Clear
6:50 AM 50.0 °F - 46.4 °F 87% 30.15 in - NNW 6.9 mph - N/A   Clear
7:20 AM 48.2 °F - 46.4 °F 93% 30.18 in - NNW 4.6 mph - N/A   Clear
7:50 AM 50.0 °F - 46.4 °F 87% 30.18 in - North 5.8 mph - N/A   Clear
8:00 AM 50 °F - 47 °F 85% 30.18 in 6 mi North 5.8 mph - -  
8:20 AM 53.6 °F - 48.2 °F 82% 30.18 in - NW 3.5 mph - N/A   Clear
8:50 AM 57.2 °F - 50.0 °F 77% 30.18 in - NNW 4.6 mph - N/A   Clear
9:20 AM 59.0 °F - 50.0 °F 72% 30.18 in - North 6.9 mph - N/A   Clear
9:50 AM 60.8 °F - 50.0 °F 68% 30.18 in - North 4.6 mph - N/A   Clear
10:20 AM 64.4 °F - 51.8 °F 64% 30.18 in - Variable 1.2 mph - N/A   Clear
10:50 AM 66.2 °F - 50.0 °F 56% 30.18 in - Variable 2.3 mph - N/A   Clear
11:20 AM 62.6 °F - 51.8 °F 68% 30.21 in - South 9.2 mph - N/A   Clear
11:50 AM 62.6 °F - 48.2 °F 59% 30.21 in - South 8.1 mph - N/A   Clear
12:20 PM 62.6 °F - 51.8 °F 68% 30.21 in - South 8.1 mph - N/A   Clear
12:50 PM 62.6 °F - 51.8 °F 68% 30.21 in - South 8.1 mph - N/A   Clear
1:20 PM 64.4 °F - 51.8 °F 64% 30.18 in - South 9.2 mph - N/A   Clear
1:50 PM 64.4 °F - 50.0 °F 59% 30.18 in 6.2 mi South 6.9 mph - N/A   Scattered Clouds
2:00 PM 64 °F - 51 °F 53% 30.18 in 6 mi South 6.9 mph - -   Scattered Clouds
2:20 PM 64.4 °F - 53.6 °F 68% 30.18 in 6.2 mi South 6.9 mph - N/A   Scattered Clouds
2:50 PM 64.4 °F - 53.6 °F 68% 30.18 in 6.2 mi South 8.1 mph - N/A   Scattered Clouds
3:20 PM 64.4 °F - 53.6 °F 68% 30.18 in 6.2 mi South 6.9 mph - N/A   Scattered Clouds
3:50 PM 62.6 °F - 53.6 °F 72% 30.18 in 6.2 mi South 8.1 mph - N/A   Scattered Clouds
4:20 PM 62.6 °F - 53.6 °F 72% 30.18 in 6.2 mi South 6.9 mph - N/A   Scattered Clouds
4:50 PM 60.8 °F - 53.6 °F 77% 30.21 in 6.2 mi SSE 4.6 mph - N/A   Scattered Clouds
5:20 PM 60.8 °F - 53.6 °F 77% 30.21 in 6.2 mi Variable 1.2 mph - N/A   Scattered Clouds
5:50 PM 59.0 °F - 53.6 °F 82% 30.21 in 6.2 mi Variable 1.2 mph - N/A   Scattered Clouds
6:20 PM 57.2 °F - 53.6 °F 88% 30.21 in 6.2 mi ESE 2.3 mph - N/A   Scattered Clouds
6:50 PM 57.2 °F - 53.6 °F 88% 30.24 in 3.7 mi NE 3.5 mph - N/A   Scattered Clouds
7:20 PM 55.4 °F - 53.6 °F 94% 30.24 in 2.5 mi Variable 2.3 mph - N/A   Scattered Clouds
7:50 PM 55.4 °F - 51.8 °F 88% 30.24 in 2.5 mi North 2.3 mph - N/A   Scattered Clouds
8:00 PM 55 °F - 52 °F 88% 30.24 in 2 mi North 2.3 mph - -   Mist
8:20 PM 53.6 °F - 51.8 °F 94% 30.24 in 2.5 mi North 3.5 mph - N/A   Scattered Clouds
8:50 PM 53.6 °F - 51.8 °F 94% 30.24 in 2.5 mi NNW 3.5 mph - N/A   Scattered Clouds
9:20 PM 53.6 °F - 51.8 °F 94% 30.27 in 2.5 mi NNW 3.5 mph - N/A   Scattered Clouds
9:50 PM 51.8 °F - 50.0 °F 94% 30.27 in 3.7 mi NNW 5.8 mph - N/A   Scattered Clouds
10:20 PM 51.8 °F - 50.0 °F 94% 30.27 in 4.3 mi North 5.8 mph - N/A   Partly Cloudy
10:50 PM 51.8 °F - 50.0 °F 94% 30.27 in 5.0 mi North 4.6 mph - N/A   Unknown
11:20 PM 51.8 °F - 50.0 °F 94% 30.27 in 5.0 mi NNW 4.6 mph - N/A   Unknown
11:50 PM 51.8 °F - 50.0 °F 94% 30.27 in - North 5.8 mph - N/A   Clear